Waarnemingen

Advertentie
Mijn weer
Twenthe, Nederland (6290): temperatuur & dauwpunt: 18.02.2017 09:00:00 - 24.02.2017 09:00:00 (CET)Twenthe, Nederland (6290): temperatuur 5cm: 18.02.2017 09:00:00 - 24.02.2017 09:00:00 (CET)Twenthe, Nederland (6290): windsnelheid & windstoten: 18.02.2017 09:00:00 - 24.02.2017 09:00:00 (CET)Twenthe, Nederland (6290): windrichting: 18.02.2017 09:00:00 - 24.02.2017 09:00:00 (CET)Twenthe, Nederland (6290): luchtdruk: 18.02.2017 09:00:00 - 24.02.2017 09:00:00 (CET)Twenthe, Nederland (6290): zicht: 18.02.2017 09:00:00 - 24.02.2017 09:00:00 (CET)Twenthe, Nederland (6290): neerslag: 18.02.2017 09:00:00 - 24.02.2017 09:00:00 (CET)
Datum & Tijd tt [°C] td [°C] tt 5cm [°C] ff [km/u] ff [kn] fx [km/u] fx [kn] dd ppp [hPa] vv [km] rr [mm]
24.02.2017 09:00:00 3,6 0,2 3,1 18 10 25 14 W 1009,3 18 0,0
24.02.2017 08:00:00 3,3 -0,1 2,4 18 10 29 16 W 1007,8 19 0,0
24.02.2017 07:00:00 3,0 -0,1 1,8 18 10 29 16 W 1006,2 21 0,0
24.02.2017 06:00:00 3,4 -0,9 2,3 18 10 36 19 W 1004,5 22 0,0
24.02.2017 05:00:00 3,3 0,3 2,2 22 12 36 19 W 1003,1 22 0,0
24.02.2017 04:00:00 3,3 0,7 2,5 22 12 43 23 W 1001,6 24 0,2
24.02.2017 03:00:00 3,3 1,0 3,1 22 12 54 29 WNW 1000,2 5 0,3
24.02.2017 02:00:00 3,6 1,4 3,2 32 18 61 33 WNW 997,9 14 0,6
24.02.2017 01:00:00 3,5 2,2 3,4 40 21 68 37 WNW 994,3 9 2,3
24.02.2017 00:00:00 5,0 3,8 4,7 29 16 58 31 WZW 989,1 6 0,3
23.02.2017 23:00:00 5,2 3,5 4,8 36 19 65 35 WZW 988,0 8 0,5
23.02.2017 22:00:00 6,0 3,0 5,5 36 19 68 37 WZW 987,8 13 0,0
23.02.2017 21:00:00 6,1 3,7 5,7 50 27 79 43 WZW 987,5 10 0,4
23.02.2017 20:00:00 6,5 3,9 5,9 47 25 76 41 WZW 986,6 10 0,5
23.02.2017 19:00:00 6,4 3,8 5,7 54 29 97 53 WZW 986,6 17 0,7
23.02.2017 18:00:00 8,5 3,3 7,6 54 29 83 45 ZW 985,8 20 0,0
23.02.2017 17:00:00 8,6 4,1 7,9 43 23 76 41 ZW 986,3 28 0,0
23.02.2017 16:00:00 9,2 6,0 8,4 40 21 72 39 ZW 986,6 30 1,6
23.02.2017 15:00:00 9,6 6,5 8,3 40 21 86 47 ZW 987,3 39 0,5
23.02.2017 14:00:00 8,7 7,4 8,5 36 19 61 33 ZZW 988,8 6 0,8
23.02.2017 13:00:00 8,9 7,4 8,8 32 18 50 27 ZZW 991,1 26 0,0
23.02.2017 12:00:00 8,9 7,7 8,8 25 14 47 25 ZZW 993,7 21 1,4
23.02.2017 11:00:00 8,6 7,8 8,5 32 18 47 25 ZZW 995,4 4,3 0,3
23.02.2017 10:00:00 8,7 8,0 8,5 29 16 43 23 ZZW 996,2 7 0,8
23.02.2017 09:00:00 8,7 8,1 8,5 25 14 43 23 ZZW 997,6 8 2,7
23.02.2017 08:00:00 8,7 8,3 8,3 22 12 32 18 ZW 998,3 7 2,2
23.02.2017 07:00:00 6,6 6,5 6,5 7 4 14 8 Z 999,0 2,3 0,9
23.02.2017 06:00:00 6,4 5,9 6,4 7 4 18 10 Z 1000,1 6 0,7
23.02.2017 05:00:00 6,9 6,4 6,7 7 4 18 10 WZW 1001,4 7 1,1
23.02.2017 04:00:00 7,0 6,3 6,8 11 6 22 12 WZW 1002,3 11 0,5
23.02.2017 03:00:00 7,6 6,6 7,3 18 10 25 14 WZW 1002,8 13 0,3
23.02.2017 02:00:00 7,9 7,4 7,7 18 10 25 14 ZW 1003,3 6 0,3
23.02.2017 01:00:00 8,1 7,4 7,9 18 10 32 18 WZW 1003,7 9 0,0
23.02.2017 00:00:00 8,0 7,2 7,7 18 10 29 16 WZW 1003,6 11 0,0
22.02.2017 23:00:00 8,1 6,8 7,8 22 12 36 19 WZW 1004,1 14 0,0
22.02.2017 22:00:00 8,2 7,0 7,9 25 14 32 18 ZW 1003,9 13 0,0
22.02.2017 21:00:00 8,1 6,8 7,5 22 12 36 19 WZW 1003,9 16 0,0
22.02.2017 20:00:00 7,8 7,0 7,4 22 12 32 18 ZW 1003,8 14 0,0
22.02.2017 19:00:00 7,3 6,3 6,8 22 12 32 18 ZW 1003,7 30 0,0
22.02.2017 18:00:00 6,9 5,8 6,6 18 10 25 14 WZW 1003,8 34 0,1
22.02.2017 17:00:00 6,9 5,4 6,6 18 10 43 23 WNW 1003,8 17 2,2
22.02.2017 16:00:00 7,1 6,2 7,0 18 10 29 16 W 1003,5 9 1,9
22.02.2017 15:00:00 7,5 6,6 7,5 18 10 40 21 W 1003,4 13 1,5
22.02.2017 14:00:00 8,2 7,8 8,2 18 10 40 21 WNW 1003,8 4,2 3,1
22.02.2017 13:00:00 10,2 8,8 10,0 29 16 54 29 W 1003,6 9 0,2
22.02.2017 12:00:00 10,2 9,0 10,0 32 18 47 25 WZW 1003,9 14 0,1
22.02.2017 11:00:00 10,0 9,1 9,7 29 16 43 23 WZW 1004,1 8 0,9
22.02.2017 10:00:00 9,7 9,0 9,6 32 18 47 25 WZW 1004,0 3,1 0,4
22.02.2017 09:00:00 9,7 9,0 9,5 29 16 47 25 WZW 1003,9 12 0,7
22.02.2017 08:00:00 9,6 8,8 9,3 32 18 50 27 ZW 1003,8 11 1,1
22.02.2017 07:00:00 9,4 8,6 9,2 32 18 54 29 ZW 1003,8 8 2,3
22.02.2017 06:00:00 9,7 8,7 9,4 32 18 58 31 ZW 1004,3 5 1,0
22.02.2017 05:00:00 10,6 8,1 10,3 36 19 58 31 ZW 1004,7 20 0,0
22.02.2017 04:00:00 10,8 8,4 10,4 29 16 58 31 ZW 1005,2 24 0,0
22.02.2017 03:00:00 10,9 8,4 10,4 40 21 54 29 ZW 1006,2 21 0,0
22.02.2017 02:00:00 10,6 9,2 10,2 32 18 50 27 ZW 1006,7 11 0,0
22.02.2017 01:00:00 10,1 9,4 9,8 32 18 47 25 ZW 1007,5 7 0,1
22.02.2017 00:00:00 9,6 8,9 9,3 22 12 36 19 ZZW 1008,5 6 0,1
21.02.2017 23:00:00 8,8 7,8 8,2 18 10 29 16 Z 1009,7 6 0,0
21.02.2017 22:00:00 7,8 5,2 7,5 18 10 25 14 Z 1011,0 20 0,0
21.02.2017 21:00:00 6,8 4,2 5,8 11 6 22 12 ZZW 1011,8 23 0,0
21.02.2017 20:00:00 6,0 3,4 4,1 11 6 18 10 ZZW 1012,7 24 0,0
21.02.2017 19:00:00 6,1 3,0 2,6 11 6 14 8 ZZW 1013,5 32 0,0
21.02.2017 18:00:00 6,8 3,1 3,8 7 4 25 14 WZW 1013,7 31 0,0
21.02.2017 17:00:00 9,5 3,2 9,1 14 8 29 16 W 1013,8 32 0,0
21.02.2017 16:00:00 9,7 3,2 9,6 14 8 32 18 W 1014,0 30 0,0
21.02.2017 15:00:00 10,3 4,1 9,8 18 10 36 19 W 1014,3 28 0,0
21.02.2017 14:00:00 9,7 3,4 10,1 22 12 40 21 W 1014,5 28 0,0
21.02.2017 13:00:00 9,3 3,7 9,8 25 14 40 21 W 1014,5 27 0,0
21.02.2017 12:00:00 9,8 5,6 8,9 22 12 32 18 W 1014,5 21 0,0
21.02.2017 11:00:00 8,5 5,2 8,6 22 12 32 18 W 1014,3 22 0,0
21.02.2017 10:00:00 8,2 5,5 8,0 18 10 32 18 W 1013,9 21 0,0
21.02.2017 09:00:00 7,9 5,6 7,9 22 12 29 16 WZW 1013,5 21 0,0
21.02.2017 08:00:00 7,5 5,2 6,9 18 10 32 18 W 1013,1 23 0,0
21.02.2017 07:00:00 7,9 5,6 7,3 18 10 29 16 W 1012,5 26 0,0
21.02.2017 06:00:00 7,9 5,7 7,1 22 12 36 19 W 1012,1 28 0,0
21.02.2017 05:00:00 8,3 6,5 7,7 22 12 32 18 WZW 1011,9 24 0,0
21.02.2017 04:00:00 8,4 7,2 8,0 18 10 29 16 WZW 1012,1 21 0,0
21.02.2017 03:00:00 8,9 7,5 8,3 18 10 32 18 W 1012,2 24 0,0
21.02.2017 02:00:00 9,7 8,5 9,4 22 12 32 18 W 1012,0 21 0,0
21.02.2017 01:00:00 10,0 9,2 9,7 18 10 32 18 W 1012,1 12 0,0
21.02.2017 00:00:00 10,5 9,6 10,2 18 10 36 19 W 1012,1 12 0,0
20.02.2017 23:00:00 10,6 10,2 10,4 18 10 32 18 W 1012,2 6 0,6
20.02.2017 22:00:00 10,5 10,3 10,4 22 12 29 16 WZW 1012,3 2,1 2,3
20.02.2017 21:00:00 10,4 10,2 10,3 22 12 36 19 WZW 1012,1 2,9 2,4
20.02.2017 20:00:00 10,3 9,9 10,2 25 14 40 21 ZW 1012,2 2,7 0,1
20.02.2017 19:00:00 10,2 9,9 9,9 25 14 40 21 ZW 1012,5 5 0,0
20.02.2017 18:00:00 10,0 9,9 9,8 25 14 36 19 WZW 1012,4 6 0,0
20.02.2017 17:00:00 9,8 9,7 9,7 25 14 36 19 ZW 1012,3 4,5 0,1
20.02.2017 16:00:00 9,6 9,6 9,6 25 14 - - ZW 1012,6 3,7 -
20.02.2017 15:00:00 - - - - - - - - - - -
20.02.2017 14:00:00 - - - - - - - - - - -
20.02.2017 13:00:00 - - - - - - - - - - -
20.02.2017 12:00:00 - - - - - - - - - - -
20.02.2017 11:00:00 - - - - - - - - - - -
20.02.2017 10:00:00 - - - - - - - - - - -
20.02.2017 09:00:00 - - - - - - - - - - -
20.02.2017 08:00:00 - - - - - - - - - - -
20.02.2017 07:00:00 - - - - - - - - - - -
20.02.2017 06:00:00 - - - - - - - - - - -
20.02.2017 05:00:00 - - - - - - - - - - -
20.02.2017 04:00:00 - - - - - - - - - - -
20.02.2017 03:00:00 - - - - - - - - - - -
20.02.2017 02:00:00 - - - - - - - - - - -
20.02.2017 01:00:00 - - - - - - - - - - -
20.02.2017 00:00:00 - - - - - - - - - - -
19.02.2017 23:00:00 - - - - - - - - - - -
19.02.2017 22:00:00 - - - - - - - - - - -
19.02.2017 21:00:00 - - - - - - - - - - -
19.02.2017 20:00:00 - - - - - - - - - - -
19.02.2017 19:00:00 - - - - - - - - - - -
19.02.2017 18:00:00 - - - - - - - - - - -
19.02.2017 17:00:00 - - - - - - - - - - -
19.02.2017 16:00:00 - - - - - - - - - - -
19.02.2017 15:00:00 - - - - - - - - - - -
19.02.2017 14:00:00 - - - - - - - - - - -
19.02.2017 13:00:00 - - - - - - - - - - -
19.02.2017 12:00:00 - - - - - - - - - - -
19.02.2017 11:00:00 - - - - - - - - - - -
19.02.2017 10:00:00 - - - - - - - - - - -
19.02.2017 09:00:00 - - - - - - - - - - -
19.02.2017 08:00:00 - - - - - - - - - - -
19.02.2017 07:00:00 - - - - - - - - - - -
19.02.2017 06:00:00 - - - - - - - - - - -
19.02.2017 05:00:00 - - - - - - - - - - -
19.02.2017 04:00:00 - - - - - - - - - - -
19.02.2017 03:00:00 - - - - - - - - - - -
19.02.2017 02:00:00 - - - - - - - - - - -
19.02.2017 01:00:00 - - - - - - - - - - -
19.02.2017 00:00:00 - - - - - - - - - - -
18.02.2017 23:00:00 - - - - - - - - - - -
18.02.2017 22:00:00 - - - - - - - - - - -
18.02.2017 21:00:00 - - - - - - - - - - -
18.02.2017 20:00:00 - - - - - - - - - - -
18.02.2017 19:00:00 - - - - - - - - - - -
18.02.2017 18:00:00 - - - - - - - - - - -
18.02.2017 17:00:00 - - - - - - - - - - -
18.02.2017 16:00:00 - - - - - - - - - - -
18.02.2017 15:00:00 - - - - - - - - - - -
18.02.2017 14:00:00 - - - - - - - - - - -
18.02.2017 13:00:00 - - - - - - - - - - -
18.02.2017 12:00:00 - - - - - - - - - - -
18.02.2017 11:00:00 - - - - - - - - - - -
18.02.2017 10:00:00 - - - - - - - - - - -
18.02.2017 09:00:00 - - - - - - - - - - -

tt = temperatuur
td = dauwpunt
tt 5cm = temperatuur 5cm
ff = windsnelheid
fx = windstoten
dd = windrichting
ppp = luchtdruk
vv = zicht
rr = neerslag

Weerstations in de omgeving